Location: Hannover
(52.3723°N, 9.7339°E)
Time: 14:46:56
(UTC+02:00)

ISS - Pass Details

Date: 28 March 2017
Orbit: 399 x 409 km, 51.6° (Epoch: 30 March)

Event Time Altitude Azimuth Distance (km) Brightness Sun altitude
Rises 20:57:17 0° 204° (SSW) 2,303 0.1 -11.0°
Reaches altitude 10° 20:59:55 10° 181° (S) 1,451 -1.2 -11.4°
Enters shadow 21:01:53 16° 144° (SE) 1,165 -2.0 -11.7°
